User: anonymous   Login
Location: Unspecified
(0.0000°N, 0.0000°E)
Time: 16:38:45
(UTC+00:00)
Language:

USA 197 - Orbit

View from above orbital plane
View from above orbital plane
View from above satellite
View from above satellite

Ground track
Ground track

The orbit data is extracted from the following two-line orbital elements,

1 32287U 07054A   15343.78722505 0.00000000  00000-0  00000-0 0    03
2 32287   2.9354  77.1410 0002502 109.4527 250.5863  1.00381054    05
Epoch (UTC): 09 December 2015 18:53:36
Eccentricity: 0.0002502
inclination: 2.9354°
perigee height: 35745 km
apogee height: 35766 km
right ascension of ascending node: 77.1410°
argument of perigee: 109.4527°
revolutions per day: 1.00381054
mean anomaly at epoch: 250.5863°
orbit number at epoch: 0

The dashed part of the orbit path shows where the satellite is in the earth's shadow,  

DLR